KB1DML-5 Weather Reports


Display with metric or nautical units.
time (UTC)temp
F
wind
direction
speed
MPH
gust
MPH
rain 1hr
in
rain 24hr
in
rain mn
in
humidity
%
barometer
mb
20260507201515 63 293 13.0 20.0 0.00 0.07 0.07 37 1005.6
20260507201015 63 293 12.0 18.0 0.00 0.07 0.07 41 1005.7
20260507200515 63 293 8.0 13.0 0.00 0.07 0.07 40 1005.7
20260507200016 63 293 9.0 15.0 0.00 0.07 0.07 40 1005.8
20260507195515 63 293 13.0 18.0 0.00 0.07 0.07 38 1005.7
20260507195015 63 293 10.0 14.0 0.00 0.07 0.07 39 1005.8
20260507194515 63 293 8.0 15.0 0.00 0.07 0.07 35 1005.8
20260507194015 63 293 12.0 17.0 0.00 0.07 0.07 35 1005.8
20260507193515 63 293 13.0 17.0 0.00 0.07 0.07 39 1005.7
20260507193015 62 293 15.0 21.0 0.00 0.07 0.07 37 1005.7
20260507192536 63 293 12.0 21.0 0.00 0.07 0.07 37 1005.9
20260507192035 62 293 10.0 15.0 0.00 0.07 0.07 37 1005.9
20260507191515 62 315 11.0 16.0 0.00 0.07 0.07 36 1005.9
20260507191016 63 293 7.0 13.0 0.00 0.07 0.07 39 1006.1
20260507190515 63 293 11.0 17.0 0.00 0.07 0.07 37 1006.1
20260507190015 63 293 12.0 17.0 0.00 0.07 0.07 36 1006.1
20260507185515 63 293 15.0 23.0 0.00 0.07 0.07 38 1006.2
20260507185016 63 293 11.0 20.0 0.00 0.07 0.07 36 1006.2
20260507184515 64 293 8.0 13.0 0.00 0.07 0.07 40 1006.2
20260507184015 64 293 8.0 16.0 0.00 0.07 0.07 38 1006.1
20260507183555 64 338 5.0 11.0 0.00 0.07 0.07 40 1006.1
20260507183016 64 315 4.0 10.0 0.00 0.07 0.07 42 1006.2
20260507182515 64 293 4.0 12.0 0.00 0.07 0.07 43 1006.2
20260507182017 64 270 3.0 10.0 0.00 0.07 0.07 48 1006.3
20260507181537 64 180 4.0 10.0 0.00 0.07 0.07 56 1006.3
20260507181017 64 180 6.0 10.0 0.00 0.07 0.07 56 1006.4
20260507180517 64 203 7.0 11.0 0.00 0.07 0.07 56 1006.3
20260507180017 64 203 6.0 9.0 0.00 0.07 0.07 56 1006.4
20260507175517 63 180 6.0 12.0 0.00 0.07 0.07 57 1006.4
20260507175058 63 180 9.0 13.0 0.00 0.07 0.07 57 1006.5
20260507174517 63 180 10.0 13.0 0.00 0.07 0.07 57 1006.5
20260507174017 62 180 9.0 14.0 0.00 0.07 0.07 58 1006.5
20260507173518 61 180 4.0 9.0 0.00 0.07 0.07 60 1006.5
20260507173017 61 180 8.0 12.0 0.00 0.07 0.07 59 1006.6
20260507172537 60 180 10.0 12.0 0.00 0.07 0.07 60 1006.6
20260507172017 60 180 10.0 13.0 0.00 0.07 0.07 60 1006.7
20260507171518 61 180 11.0 14.0 0.00 0.07 0.07 59 1006.7
20260507171017 61 180 10.0 14.0 0.00 0.07 0.07 59 1006.9
20260507170517 61 180 9.0 14.0 0.00 0.07 0.07 59 1006.9
20260507170017 61 180 12.0 16.0 0.00 0.07 0.07 58 1006.9
20260507165517 62 180 12.0 18.0 0.00 0.07 0.07 57 1006.9
20260507165017 62 180 13.0 17.0 0.00 0.07 0.07 58 1007.0
20260507164516 61 180 12.0 16.0 0.00 0.07 0.07 58 1007.2
20260507164017 61 180 12.0 16.0 0.00 0.07 0.07 59 1007.2
20260507163538 60 180 12.0 15.0 0.00 0.07 0.07 59 1007.3
20260507163017 61 180 11.0 14.0 0.00 0.07 0.07 61 1007.3
20260507162557 61 180 14.0 16.0 0.00 0.07 0.07 59 1007.3
20260507162016 62 180 12.0 15.0 0.00 0.07 0.07 58 1007.3
20260507161518 63 203 12.0 15.0 0.00 0.07 0.07 56 1007.6
20260507161017 64 180 11.0 16.0 0.00 0.07 0.07 55 1007.4
20260507160517 64 203 8.0 13.0 0.00 0.07 0.07 57 1007.5
20260507160017 63 203 7.0 10.0 0.00 0.07 0.07 59 1007.7
20260507155518 62 180 9.0 13.0 0.00 0.07 0.07 58 1007.9
20260507155017 62 158 5.0 10.0 0.00 0.07 0.07 59 1007.7
20260507154517 62 180 11.0 15.0 0.00 0.07 0.07 59 1007.8
20260507154017 62 203 4.0 10.0 0.00 0.07 0.07 61 1007.8
20260507153517 61 203 3.0 7.0 0.00 0.07 0.07 62 1007.8
20260507153017 60 338 3.0 5.0 0.00 0.07 0.07 57 1007.9
20260507152517 60 338 3.0 7.0 0.00 0.07 0.07 59 1007.9
20260507152016 60 315 3.0 9.0 0.00 0.07 0.07 59 1007.9
20260507151537 59 338 4.0 8.0 0.00 0.07 0.07 58 1008.1
20260507151017 59 338 5.0 8.0 0.00 0.07 0.07 58 1008.1
20260507150516 59 338 5.0 10.0 0.00 0.07 0.07 58 1008.3
20260507150017 59 338 5.0 7.0 0.00 0.07 0.07 61 1008.4
20260507145516 59 338 3.0 6.0 0.00 0.07 0.07 62 1008.4
20260507145017 58 338 4.0 7.0 0.00 0.07 0.07 61 1008.3
20260507144516 58 338 4.0 7.0 0.00 0.07 0.07 61 1008.4
20260507144017 58 338 4.0 8.0 0.00 0.07 0.07 62 1008.5
20260507143517 58 338 4.0 8.0 0.00 0.07 0.07 62 1008.6
20260507143017 59 338 4.0 7.0 0.00 0.07 0.07 62 1008.5
20260507142517 59 23 3.0 5.0 0.00 0.07 0.07 65 1008.5
20260507142017 58 68 2.0 4.0 0.00 0.07 0.07 68 1008.4
20260507141516 57 338 2.0 4.0 0.00 0.07 0.07 70 1008.4
20260507141016 56 338 3.0 4.0 0.00 0.07 0.07 68 1008.4
20260507140536 56 338 4.0 5.0 0.00 0.07 0.07 68 1008.4
20260507140038 56 338 4.0 7.0 0.00 0.07 0.07 70 1008.6
20260507135517 56 338 4.0 6.0 0.00 0.07 0.07 70 1008.5
20260507135016 56 293 2.0 6.0 0.00 0.07 0.07 72 1008.5
20260507134517 55 338 4.0 10.0 0.00 0.07 0.07 72 1008.5
20260507134016 55 338 4.0 10.0 0.00 0.07 0.07 72 1008.5
20260507133517 55 338 4.0 7.0 0.00 0.07 0.07 73 1008.6
20260507133016 54 338 3.0 5.0 0.00 0.07 0.07 74 1008.7
20260507132517 54 338 4.0 9.0 0.00 0.07 0.07 76 1008.8
20260507132036 53 338 4.0 8.0 0.00 0.07 0.07 76 1008.8
20260507131516 53 338 3.0 7.0 0.00 0.07 0.07 78 1008.9
20260507131017 52 338 5.0 9.0 0.00 0.07 0.07 79 1009.0
20260507130516 52 338 5.0 8.0 0.00 0.07 0.07 80 1009.0
20260507130016 51 315 3.0 8.0 0.00 0.07 0.07 84 1009.1
20260507125516 51 338 3.0 7.0 0.00 0.07 0.07 84 1009.1
20260507125017 50 338 5.0 8.0 0.00 0.07 0.07 84 1008.9
20260507124516 50 338 4.0 8.0 0.00 0.07 0.07 86 1008.9
20260507124016 50 23 3.0 7.0 0.00 0.07 0.07 88 1008.7
20260507123556 49 23 2.0 5.0 0.00 0.07 0.07 88 1008.8
20260507123017 49 338 3.0 5.0 0.00 0.07 0.07 88 1008.9
20260507122516 50 338 3.0 7.0 0.00 0.07 0.07 88 1008.8
20260507122016 49 315 2.0 5.0 0.00 0.07 0.07 90 1008.9
20260507121516 49 23 2.0 3.0 0.00 0.07 0.07 90 1008.7
20260507121057 49 23 2.0 5.0 0.00 0.07 0.07 90 1008.9
20260507120516 49 315 2.0 6.0 0.00 0.07 0.07 90 1008.8
20260507120016 49 45 2.0 3.0 0.00 0.07 0.07 90 1008.7
20260507115516 48 315 2.0 5.0 0.00 0.07 0.07 89 1008.6
20260507115037 48 338 3.0 5.0 0.00 0.07 0.07 89 1008.7
20260507114516 48 315 2.0 5.0 0.00 0.07 0.07 89 1008.7
20260507114016 48 23 2.0 4.0 0.00 0.07 0.07 89 1008.6
20260507113517 48 23 2.0 4.0 0.00 0.07 0.07 89 1008.7
20260507113016 48 23 2.0 4.0 0.00 0.07 0.07 89 1008.5
20260507112516 48 315 2.0 5.0 0.00 0.07 0.07 89 1008.5
20260507112016 48 338 3.0 7.0 0.00 0.07 0.07 89 1008.4
20260507111517 48 315 3.0 7.0 0.01 0.07 0.07 89 1008.6
20260507111017 48 315 2.0 4.0 0.01 0.07 0.07 89 1008.6
20260507110516 48 315 2.0 4.0 0.02 0.07 0.07 89 1008.5
20260507110016 48 23 2.0 4.0 0.02 0.07 0.07 89 1008.8
20260507105517 48 293 4.0 8.0 0.02 0.07 0.07 89 1008.8
20260507105016 48 293 5.0 8.0 0.02 0.07 0.07 89 1008.9
20260507104516 48 45 2.0 6.0 0.02 0.07 0.07 90 1008.6
20260507104016 48 45 2.0 4.0 0.02 0.07 0.07 90 1008.3
20260507103517 48 45 2.0 4.0 0.03 0.07 0.07 90 1008.6
20260507103016 48 315 3.0 6.0 0.04 0.07 0.07 89 1008.6
20260507102536 48 338 3.0 8.0 0.05 0.07 0.07 89 1008.6
20260507102036 48 338 3.0 5.0 0.06 0.07 0.07 89 1008.6
20260507101517 48 338 3.0 6.0 0.05 0.06 0.06 89 1008.6
20260507101016 48 293 3.0 6.0 0.05 0.06 0.06 88 1008.4
20260507100516 48 338 3.0 7.0 0.04 0.05 0.05 88 1008.4
20260507100017 48 338 4.0 9.0 0.04 0.05 0.05 88 1008.2
20260507095517 48 338 3.0 8.0 0.04 0.05 0.05 88 1008.3
20260507095016 49 315 4.0 10.0 0.04 0.05 0.05 87 1008.5
20260507094536 49 315 4.0 11.0 0.04 0.05 0.05 88 1008.4
20260507094016 49 315 4.0 10.0 0.04 0.05 0.05 87 1008.4
20260507093516 49 315 6.0 11.0 0.03 0.04 0.04 87 1008.4
20260507093016 49 293 7.0 11.0 0.03 0.03 0.03 87 1008.3
20260507092516 50 293 8.0 12.0 0.02 0.02 0.02 87 1008.4
20260507092016 50 293 10.0 13.0 0.01 0.01 0.01 86 1008.4
20260507091537 50 293 10.0 13.0 0.01 0.01 0.01 86 1008.5
20260507091016 50 293 10.0 14.0 0.01 0.01 0.01 85 1008.2
20260507090516 50 293 10.0 14.0 0.01 0.01 0.01 86 1008.2
20260507090037 50 293 11.0 14.0 0.01 0.01 0.01 86 1008.2
20260507085516 50 293 12.0 17.0 0.01 0.01 0.01 85 1008.0
20260507085015 50 293 10.0 15.0 0.01 0.01 0.01 86 1007.8
20260507084516 50 293 9.0 17.0 0.01 0.01 0.01 86 1007.8
20260507084017 50 293 11.0 16.0 0.01 0.01 0.01 87 1007.8
20260507083515 50 293 11.0 15.0 0.01 0.01 0.01 87 1007.7
20260507083016 51 293 11.0 16.0 0.00 0.00 0.00 86 1007.6
20260507082516 51 293 14.0 20.0 0.00 0.00 0.00 86 1007.8
20260507082017 51 293 15.0 20.0 0.00 0.00 0.00 86 1007.8
20260507081516 51 293 16.0 21.0 0.00 0.00 0.00 86 1007.9
20260507081016 51 293 13.0 20.0 0.00 0.00 0.00 86 1007.8
20260507080516 51 293 12.0 18.0 0.00 0.00 0.00 85 1007.8
20260507080016 51 293 14.0 18.0 0.00 0.00 0.00 84 1007.7
20260507075516 51 293 14.0 20.0 0.00 0.00 0.00 84 1007.7
20260507075036 52 293 14.0 18.0 0.00 0.00 0.00 84 1007.8
20260507074536 52 293 12.0 17.0 0.00 0.00 0.00 84 1007.4
20260507074017 52 293 12.0 16.0 0.00 0.00 0.00 84 1007.2
20260507073516 52 293 11.0 15.0 0.00 0.00 0.00 84 1007.5
20260507073016 52 293 11.0 14.0 0.00 0.00 0.00 84 1007.4
20260507072536 52 293 10.0 15.0 0.00 0.00 0.00 84 1007.4
20260507072016 52 293 10.0 15.0 0.00 0.00 0.00 83 1007.5
20260507071515 53 293 10.0 14.0 0.00 0.00 0.00 84 1007.4
20260507071015 53 270 10.0 16.0 0.00 0.00 0.00 85 1007.3
20260507070556 53 293 9.0 16.0 0.00 0.00 0.00 86 1007.3
20260507070036 53 293 9.0 12.0 0.00 0.00 0.00 87 1007.4
20260507065515 53 270 7.0 11.0 0.00 0.00 0.00 88 1007.4
20260507065016 53 293 8.0 12.0 0.00 0.00 0.00 88 1007.3
20260507064516 53 293 8.0 11.0 0.00 0.00 0.00 88 1007.1
20260507064016 53 293 8.0 11.0 0.00 0.00 0.00 88 1007.0
20260507063516 53 293 7.0 12.0 0.00 0.00 0.00 89 1006.9
20260507063015 53 293 5.0 12.0 0.00 0.00 0.00 89 1006.8
20260507062516 53 315 5.0 10.0 0.00 0.00 0.00 89 1007.1
20260507062036 53 293 7.0 11.0 0.00 0.00 0.00 89 1007.2
20260507061515 53 293 11.0 15.0 0.00 0.00 0.00 89 1007.4
20260507061015 53 293 8.0 14.0 0.00 0.00 0.00 90 1007.4
20260507060516 53 293 6.0 10.0 0.00 0.00 0.00 90 1007.2
20260507060015 52 315 4.0 10.0 0.00 0.00 0.00 90 1007.4
20260507055515 52 293 8.0 14.0 0.00 0.00 0.00 90 1007.5
20260507055016 52 293 7.0 12.0 0.00 0.00 0.00 90 1007.5
20260507054515 53 293 6.0 10.0 0.00 0.00 0.00 90 1007.5
20260507054015 53 315 5.0 12.0 0.00 0.00 0.00 90 1007.3
20260507053515 53 315 5.0 10.0 0.00 0.00 0.00 90 1007.0
20260507053016 53 338 6.0 11.0 0.00 0.00 0.00 91 1006.9
20260507052516 53 315 5.0 10.0 0.00 0.00 0.00 90 1007.2
20260507052015 54 338 5.0 11.0 0.00 0.00 0.00 90 1007.3
20260507051535 55 315 4.0 9.0 0.00 0.00 0.00 90 1007.2
20260507051016 56 315 5.0 10.0 0.00 0.00 0.00 90 1007.2
20260507050515 57 293 7.0 14.0 0.00 0.00 0.00 92 1007.2
20260507050015 57 270 8.0 14.0 0.00 0.00 0.00 93 1007.0
20260507045535 58 270 8.0 12.0 0.00 0.00 0.00 93 1006.9
20260507045016 58 270 8.0 13.0 0.00 0.00 0.00 94 1006.8
20260507044516 58 270 6.0 12.0 0.00 0.00 0.00 95 1007.0
20260507044015 58 248 3.0 6.0 0.00 0.00 0.00 94 1007.1
20260507043516 57 225 2.0 7.0 0.00 0.00 0.00 94 1007.0
20260507043016 57 225 4.0 7.0 0.00 0.00 0.00 94 1007.1
20260507042516 57 203 4.0 6.0 0.00 0.00 0.00 94 1006.9
20260507042016 57 203 6.0 9.0 0.00 0.00 0.00 94 1007.1
20260507041516 57 203 6.0 7.0 0.00 0.00 0.00 94 1007.1
20260507041016 57 203 8.0 10.0 0.00 0.00 0.00 94 1007.1
20260507040516 57 203 7.0 10.0 0.00 0.00 0.00 94 1007.1
20260507040015 57 203 6.0 9.0 0.00 0.00 0.00 94 1006.9
20260507035516 57 203 8.0 10.0 0.00 0.00 0.00 93 1007.1
20260507035037 57 203 8.0 10.0 0.00 0.00 0.00 93 1007.1
20260507034517 57 203 8.0 10.0 0.00 0.00 0.00 93 1007.2
20260507034017 57 203 10.0 12.0 0.00 0.00 0.00 93 1007.0
20260507033516 57 203 9.0 12.0 0.00 0.00 0.00 93 1006.9
20260507033036 57 203 10.0 13.0 0.00 0.00 0.00 93 1006.8
20260507032516 57 203 10.0 15.0 0.00 0.00 0.00 94 1006.7
20260507032016 57 203 10.0 12.0 0.00 0.00 0.00 94 1006.6
20260507031516 57 203 10.0 13.0 0.00 0.00 0.00 94 1006.5
20260507031016 57 203 10.0 14.0 0.00 0.00 0.00 94 1006.4
20260507030536 57 203 11.0 15.0 0.00 0.00 0.00 94 1006.5
20260507030016 57 203 10.0 13.0 0.00 0.00 0.00 93 1006.6
20260507025517 57 203 11.0 14.0 0.00 0.00 0.00 94 1006.5
20260507025036 57 203 10.0 14.0 0.00 0.00 0.00 93 1006.6
20260507024516 57 203 11.0 14.0 0.00 0.00 0.00 93 1006.7
20260507024016 56 203 12.0 16.0 0.00 0.00 0.00 93 1006.8
20260507023537 56 203 12.0 16.0 0.00 0.00 0.00 93 1006.7
20260507023016 56 203 11.0 14.0 0.00 0.00 0.00 93 1006.8
20260507022516 56 203 12.0 17.0 0.00 0.00 0.00 93 1006.7
20260507022016 56 203 12.0 17.0 0.00 0.00 0.00 93 1006.6
20260507021516 56 203 13.0 16.0 0.00 0.00 0.00 93 1006.9
20260507021016 56 203 13.0 16.0 0.00 0.00 0.00 93 1006.8
20260507020517 56 203 13.0 18.0 0.00 0.00 0.00 93 1006.9
20260507020016 56 203 13.0 20.0 0.00 0.00 0.00 93 1006.9
20260507015516 56 203 13.0 17.0 0.00 0.00 0.00 93 1007.0
20260507015016 56 203 14.0 17.0 0.00 0.00 0.00 93 1007.0
20260507014537 56 203 14.0 19.0 0.00 0.00 0.00 93 1007.0
20260507014016 56 203 14.0 18.0 0.00 0.00 0.00 93 1007.0
20260507013516 56 203 14.0 22.0 0.00 0.00 0.00 93 1007.2
20260507013037 57 203 13.0 18.0 0.00 0.00 0.00 93 1007.2
20260507012516 56 203 15.0 19.0 0.00 0.00 0.00 93 1007.1
20260507012016 56 203 15.0 19.0 0.00 0.00 0.00 93 1007.3
20260507011516 56 203 16.0 20.0 0.00 0.00 0.00 93 1007.2
20260507011037 56 203 17.0 23.0 0.00 0.00 0.00 92 1007.3
20260507010516 56 203 17.0 23.0 0.00 0.00 0.00 92 1007.2
20260507010016 57 203 17.0 22.0 0.00 0.00 0.00 92 1007.2
20260507005517 57 203 17.0 22.0 0.00 0.00 0.00 92 1007.3
20260507005016 57 203 16.0 21.0 0.00 0.00 0.00 92 1007.3
20260507004556 57 203 16.0 22.0 0.00 0.00 0.00 92 1007.2
20260507004016 57 203 17.0 25.0 0.00 0.00 0.00 92 1007.2
20260507003536 57 203 18.0 25.0 0.00 0.00 0.00 92 1007.1
20260507003016 57 203 18.0 27.0 0.00 0.00 0.00 92 1007.1
20260507002516 57 203 16.0 22.0 0.00 0.00 0.00 92 1007.1
20260507002017 57 203 18.0 22.0 0.00 0.00 0.00 92 1007.1
20260507001516 57 203 17.0 22.0 0.00 0.00 0.00 92 1007.2
20260507001015 57 203 18.0 24.0 0.00 0.00 0.00 92 1007.1
20260507000516 57 203 17.0 23.0 0.00 0.00 0.00 92 1007.1
20260507000016 57 203 16.0 24.0 0.00 0.00 0.00 92 1007.2
20260506235516 57 203 18.0 29.0 0.00 0.00 0.00 92 1007.2
20260506235016 57 203 17.0 22.0 0.00 0.00 0.00 92 1007.0
20260506234516 57 203 15.0 21.0 0.00 0.00 0.00 92 1006.9
20260506234037 57 203 16.0 20.0 0.00 0.00 0.00 92 1007.1
20260506233516 57 203 18.0 24.0 0.00 0.00 0.00 92 1007.1
20260506233016 57 203 19.0 22.0 0.00 0.00 0.00 92 1007.2
20260506232516 58 203 18.0 24.0 0.00 0.00 0.00 92 1007.3
20260506232016 58 203 19.0 26.0 0.00 0.00 0.00 92 1007.1
20260506231515 58 203 21.0 27.0 0.00 0.00 0.00 92 1007.3
20260506231016 58 203 20.0 25.0 0.00 0.00 0.00 92 1007.2
20260506230537 57 203 19.0 25.0 0.00 0.00 0.00 92 1007.3
20260506230016 57 203 17.0 22.0 0.00 0.00 0.00 92 1007.3
20260506225516 57 203 18.0 23.0 0.00 0.00 0.00 91 1007.2
20260506225016 58 203 17.0 23.0 0.00 0.00 0.00 91 1007.2
20260506224516 58 180 17.0 24.0 0.00 0.00 0.00 91 1007.1
20260506224016 58 203 17.0 23.0 0.00 0.00 0.00 91 1007.4
20260506223516 58 203 18.0 24.0 0.00 0.00 0.00 91 1007.4
20260506223015 58 203 19.0 25.0 0.00 0.00 0.00 91 1007.6
20260506222516 59 203 20.0 28.0 0.00 0.00 0.00 91 1007.5
20260506222015 59 203 18.0 28.0 0.00 0.00 0.00 90 1007.6
20260506221515 59 203 18.0 24.0 0.00 0.00 0.00 90 1007.7
20260506221035 59 203 20.0 28.0 0.00 0.00 0.00 90 1007.8
20260506220516 59 203 19.0 25.0 0.00 0.00 0.00 89 1007.8
20260506220015 59 203 19.0 27.0 0.00 0.00 0.00 89 1007.8
20260506215515 59 203 20.0 26.0 0.00 0.00 0.00 89 1007.9
20260506215015 59 203 20.0 28.0 0.00 0.00 0.00 89 1007.8
20260506214536 59 203 18.0 25.0 0.00 0.00 0.00 89 1008.0
20260506214016 59 203 20.0 26.0 0.00 0.00 0.00 89 1007.9
20260506213515 59 203 20.0 26.0 0.00 0.00 0.00 89 1007.9
20260506213016 59 203 20.0 25.0 0.00 0.00 0.00 88 1008.0
20260506212516 59 203 21.0 27.0 0.00 0.00 0.00 88 1008.0
20260506212015 59 203 20.0 25.0 0.00 0.00 0.00 87 1008.1
20260506211515 60 203 18.0 23.0 0.00 0.00 0.00 86 1008.2
20260506211015 60 203 19.0 26.0 0.00 0.00 0.00 86 1008.2
20260506210516 60 203 19.0 26.0 0.00 0.00 0.00 85 1008.3
20260506210015 61 203 20.0 26.0 0.00 0.00 0.00 84 1008.1
20260506205515 61 203 20.0 24.0 0.00 0.00 0.00 83 1008.2
20260506205015 61 203 20.0 28.0 0.00 0.00 0.00 83 1008.4
20260506204536 61 203 19.0 29.0 0.00 0.00 0.00 83 1008.4
20260506204015 61 203 18.0 25.0 0.00 0.00 0.00 83 1008.4
20260506203515 61 203 18.0 25.0 0.00 0.00 0.00 83 1008.4
20260506203015 61 203 18.0 26.0 0.00 0.00 0.00 83 1008.3
20260506202516 61 203 18.0 22.0 0.00 0.00 0.00 83 1007.9
20260506202015 61 203 17.0 23.0 0.00 0.00 0.00 83 1007.9